Flight Track Log - Related Links

Times and Time Zones

All times are in EDT time to prevent confusion due to time zone crossing. See the BLS308 flight status page for this flight to view local times or setup timezone preferences in your user account.

Time Position Orientation Groundspeed Altitude Reporting Facility
EDT Latitude Longitude Course Direction KTS MPH feet Rate Location/Type
Fri 12:39:15 PM 50.0500 -91.8333 135° Southeast 210 242 3,300  Level Winnipeg Center
Fri 12:40:15 PM 50.0000 -91.7500 133° Southeast 210 242 4,400 1,100 Climbing Winnipeg Center
Fri 12:41:15 PM 49.9500 -91.6833 139° Southeast 240 276 5,500 1,100 Climbing Winnipeg Center
Fri 12:42:15 PM 49.9000 -91.5833 128° Southeast 260 299 6,600 1,000 Climbing Winnipeg Center
Fri 12:43:00 PM 49.8481 -91.4936 139° Southeast  Level Estimated
Fri 12:43:15 PM 49.8500 -91.5167 139° Southeast 260 299 7,500  Level Winnipeg Center
Fri 12:44:00 PM 49.8036 -91.4255 135° Southeast  Level Estimated
Fri 12:44:15 PM 49.8167 -91.4333 122° Southeast 260 299 8,500  Level Winnipeg Center
Fri 12:45:15 PM 49.7500 -91.3667 147° Southeast 260 299 9,300 1,400 Climbing Winnipeg Center
Fri 12:46:15 PM 49.7000 -91.3000 139° Southeast 240 276 11,300 1,750 Climbing Winnipeg Center
Fri 12:47:15 PM 49.6667 -91.2167 122° Southeast 220 253 12,800 1,300 Climbing Winnipeg Center
Fri 12:48:15 PM 49.6167 -91.1500 139° Southeast 230 265 13,900 1,200 Climbing Winnipeg Center
Fri 12:49:15 PM 49.5667 -91.0833 139° Southeast 230 265 15,200 1,050 Climbing Winnipeg Center
Fri 12:50:15 PM 49.5167 -91.0167 139° Southeast 240 276 16,000 800 Climbing Winnipeg Center
Fri 12:51:15 PM 49.4833 -90.9333 122° Southeast 250 288 16,800 550 Climbing Winnipeg Center
Fri 12:52:15 PM 49.4167 -90.8500 141° Southeast 270 311 17,100 150 Climbing Winnipeg Center
Fri 12:53:15 PM 49.3500 -90.7500 136° Southeast 290 334 17,100  Level Winnipeg Center
Fri 12:54:15 PM 49.3000 -90.6833 139° Southeast 300 345 17,100 50 Level Winnipeg Center
Fri 12:55:15 PM 49.2333 -90.5833 136° Southeast 310 357 17,200  Climbing Winnipeg Center
Fri 12:56:15 PM 49.1667 -90.4833 136° Southeast 310 357 17,100 -50 Descending Winnipeg Center
Fri 12:57:15 PM 49.1167 -90.4000 132° Southeast 310 357 17,100  Level Winnipeg Center
Fri 12:58:15 PM 49.0500 -90.3000 135° Southeast 310 357 17,100  Level Winnipeg Center
Fri 12:59:15 PM 48.9833 -90.2000 135° Southeast 310 357 17,100 -400 Level Winnipeg Center
Fri 01:00:15 PM 48.9333 -90.1167 132° Southeast 320 368 16,300 -1,100 Descending Winnipeg Center
Fri 01:01:15 PM 48.8667 -90.0167 135° Southeast 330 380 14,900 -1,550 Descending Winnipeg Center
Fri 01:02:15 PM 48.8000 -89.9333 141° Southeast 320 368 13,200 -2,000 Descending Winnipeg Center
Fri 01:03:15 PM 48.7333 -89.8333 135° Southeast 290 334 10,900 -2,450 Descending Winnipeg Center
Fri 01:04:15 PM 48.6833 -89.7667 139° Southeast 290 334 8,300 -2,200 Descending Winnipeg Center
Fri 01:05:15 PM 48.6000 -89.6833 147° Southeast 290 334 6,500 -1,750 Descending Winnipeg Center
Fri 01:06:15 PM 48.5667 -89.6000 121° Southeast 280 322 4,800 -1,250 Descending Winnipeg Center
Fri 01:07:15 PM 48.5000 -89.5500 154° Southeast 260 299 4,000 -800 Descending Winnipeg Center
Fri 01:08:15 PM 48.4500 -89.4667 132° Southeast 220 253 3,200 -650 Descending Winnipeg Center
Fri 01:09:15 PM 48.4167 -89.4000 127° Southeast 200 230 2,700 -600 Descending Winnipeg Center
Fri 01:10:15 PM 48.3833 -89.3500 135° Southeast 160 184 2,000 -850 Descending Winnipeg Center
Fri 01:11:15 PM 48.3667 -89.3167 127° Southeast 130 150 1,000 -1,000 Descending Winnipeg Center

Login

Don't have an account? Register now (free) for customized features, flight alerts, and more!